Time,TemperatureF,DewpointF,PressureIn,WindDirection,WindDirectionDegrees,WindSpeedMPH,WindSpeedGustMPH,Humidity,HourlyPrecipIn,Conditions,Clouds,dailyrainin,SolarRadiationWatts/m^2,SoftwareType,DateUTC
2013-07-27 00:22:00,52.0,44.0,-100.00,NNE,23,10.0,13.0,74,0.00,,,0.00,0.000000,,2013-07-27 05:22:00,
2013-07-27 00:32:00,52.0,44.0,-100.00,NNE,23,10.0,13.0,74,0.00,,,0.00,0.000000,,2013-07-27 05:32:00,
2013-07-27 00:43:00,52.0,44.0,-100.00,NNE,23,10.0,13.0,74,0.00,,,0.00,0.000000,,2013-07-27 05:43:00,
2013-07-27 00:52:00,52.0,44.0,-100.00,NNE,23,10.0,13.0,74,0.00,,,0.00,0.000000,,2013-07-27 05:52:00,
2013-07-27 01:22:00,51.0,44.0,-100.00,NNE,19,9.0,15.0,77,0.00,,,0.00,0.000000,,2013-07-27 06:22:00,
2013-07-27 01:33:00,51.0,44.0,-100.00,NNE,19,9.0,15.0,77,0.00,,,0.00,0.000000,,2013-07-27 06:33:00,
2013-07-27 01:43:00,51.0,44.0,-100.00,NNE,19,9.0,15.0,77,0.00,,,0.00,0.000000,,2013-07-27 06:43:00,
2013-07-27 01:52:00,51.0,44.0,-100.00,NNE,19,9.0,15.0,77,0.00,,,0.00,0.000000,,2013-07-27 06:52:00,
2013-07-27 02:22:00,49.0,45.0,-100.00,NNE,14,9.0,14.0,86,0.00,,,0.00,0.000000,,2013-07-27 07:22:00,
2013-07-27 02:33:00,49.0,45.0,-100.00,NNE,14,9.0,14.0,86,0.00,,,0.00,0.000000,,2013-07-27 07:33:00,
2013-07-27 02:43:00,49.0,45.0,-100.00,NNE,14,9.0,14.0,86,0.00,,,0.00,0.000000,,2013-07-27 07:43:00,
2013-07-27 02:52:00,49.0,45.0,-100.00,NNE,14,9.0,14.0,86,0.00,,,0.00,0.000000,,2013-07-27 07:52:00,
2013-07-27 03:22:00,49.0,47.0,-100.00,NNE,17,9.0,15.0,92,0.00,,,0.00,0.000000,,2013-07-27 08:22:00,
2013-07-27 03:32:00,49.0,47.0,-100.00,NNE,17,9.0,15.0,92,0.00,,,0.00,0.000000,,2013-07-27 08:32:00,
2013-07-27 03:43:00,49.0,47.0,-100.00,NNE,17,9.0,15.0,92,0.00,,,0.00,0.000000,,2013-07-27 08:43:00,
2013-07-27 03:53:00,49.0,47.0,-100.00,NNE,17,9.0,15.0,92,0.00,,,0.00,0.000000,,2013-07-27 08:53:00,
2013-07-27 04:22:00,47.0,46.0,-100.00,NNE,20,10.0,15.0,96,0.00,,,0.00,0.000000,,2013-07-27 09:22:00,
2013-07-27 04:33:00,47.0,46.0,-100.00,NNE,20,10.0,15.0,96,0.00,,,0.00,0.000000,,2013-07-27 09:33:00,
2013-07-27 04:44:00,47.0,46.0,-100.00,NNE,20,10.0,15.0,96,0.00,,,0.00,0.000000,,2013-07-27 09:44:00,
2013-07-27 04:52:00,47.0,46.0,-100.00,NNE,20,10.0,15.0,96,0.00,,,0.00,0.000000,,2013-07-27 09:52:00,
2013-07-27 05:22:00,46.0,46.0,-100.00,NNE,16,9.0,15.0,100,0.00,,,0.00,0.000000,,2013-07-27 10:22:00,
2013-07-27 05:32:00,46.0,46.0,-100.00,NNE,16,9.0,15.0,100,0.00,,,0.00,0.000000,,2013-07-27 10:32:00,
2013-07-27 05:43:00,46.0,46.0,-100.00,NNE,16,9.0,15.0,100,0.00,,,0.00,0.000000,,2013-07-27 10:43:00,
2013-07-27 05:52:00,46.0,46.0,-100.00,NNE,16,9.0,15.0,100,0.00,,,0.00,0.000000,,2013-07-27 10:52:00,
2013-07-27 06:22:00,46.0,45.0,-100.00,NNE,19,9.0,14.0,97,0.00,,,0.00,0.000000,,2013-07-27 11:22:00,
2013-07-27 06:32:00,46.0,45.0,-100.00,NNE,19,9.0,14.0,97,0.00,,,0.00,0.000000,,2013-07-27 11:32:00,
2013-07-27 06:44:00,46.0,45.0,-100.00,NNE,19,9.0,14.0,97,0.00,,,0.00,0.000000,,2013-07-27 11:44:00,
2013-07-27 06:52:00,46.0,45.0,-100.00,NNE,19,9.0,14.0,97,0.00,,,0.00,0.000000,,2013-07-27 11:52:00,
2013-07-27 07:22:00,48.0,47.0,-100.00,North,4,9.0,15.0,96,0.00,,,0.00,33.000000,,2013-07-27 12:22:00,
2013-07-27 07:33:00,48.0,47.0,-100.00,North,4,9.0,15.0,96,0.00,,,0.00,33.000000,,2013-07-27 12:33:00,
2013-07-27 07:43:00,48.0,47.0,-100.00,North,4,9.0,15.0,96,0.00,,,0.00,33.000000,,2013-07-27 12:43:00,
2013-07-27 07:52:00,48.0,47.0,-100.00,North,4,9.0,15.0,96,0.00,,,0.00,33.000000,,2013-07-27 12:52:00,
2013-07-27 08:32:00,52.0,46.0,-100.00,North,359,10.0,14.0,79,0.00,,,0.00,217.000000,,2013-07-27 13:32:00,
2013-07-27 08:44:00,52.0,46.0,-100.00,North,359,10.0,14.0,79,0.00,,,0.00,217.000000,,2013-07-27 13:44:00,
2013-07-27 08:53:00,52.0,46.0,-100.00,North,359,10.0,14.0,79,0.00,,,0.00,217.000000,,2013-07-27 13:53:00,
2013-07-27 09:32:00,56.0,45.0,-100.00,North,6,11.0,19.0,67,0.00,,,0.00,240.000000,,2013-07-27 14:32:00,
2013-07-27 09:44:00,56.0,45.0,-100.00,North,6,11.0,19.0,67,0.00,,,0.00,240.000000,,2013-07-27 14:44:00,
2013-07-27 09:54:00,56.0,45.0,-100.00,North,6,11.0,19.0,67,0.00,,,0.00,240.000000,,2013-07-27 14:54:00,
2013-07-27 10:22:00,57.0,49.0,-100.00,North,354,14.0,24.0,74,0.00,,,0.00,36.000000,,2013-07-27 15:22:00,
2013-07-27 10:33:00,57.0,49.0,-100.00,North,354,14.0,24.0,74,0.00,,,0.00,36.000000,,2013-07-27 15:33:00,
2013-07-27 10:44:00,57.0,49.0,-100.00,North,354,14.0,24.0,74,0.00,,,0.00,36.000000,,2013-07-27 15:44:00,
2013-07-27 10:53:00,57.0,49.0,-100.00,North,354,14.0,24.0,74,0.00,,,0.00,36.000000,,2013-07-27 15:53:00,
2013-07-27 11:22:00,61.0,47.0,-100.00,North,4,14.0,28.0,61,0.00,,,0.00,462.000000,,2013-07-27 16:22:00,
2013-07-27 11:33:00,61.0,47.0,-100.00,North,4,14.0,28.0,61,0.00,,,0.00,462.000000,,2013-07-27 16:33:00,
2013-07-27 11:43:00,61.0,47.0,-100.00,North,4,14.0,28.0,61,0.00,,,0.00,462.000000,,2013-07-27 16:43:00,
2013-07-27 11:53:00,61.0,47.0,-100.00,North,4,14.0,28.0,61,0.00,,,0.00,462.000000,,2013-07-27 16:53:00,
2013-07-27 12:32:00,60.0,42.0,-100.00,North,6,13.0,22.0,52,0.00,,,0.00,689.000000,,2013-07-27 17:32:00,
2013-07-27 12:43:00,60.0,42.0,-100.00,North,6,13.0,22.0,52,0.00,,,0.00,689.000000,,2013-07-27 17:43:00,
2013-07-27 12:53:00,60.0,42.0,-100.00,North,6,13.0,22.0,52,0.00,,,0.00,689.000000,,2013-07-27 17:53:00,
2013-07-27 13:22:00,63.0,45.0,-100.00,North,7,13.0,23.0,51,0.00,,,0.00,809.000000,,2013-07-27 18:22:00,
2013-07-27 13:33:00,63.0,45.0,-100.00,North,7,13.0,23.0,51,0.00,,,0.00,809.000000,,2013-07-27 18:33:00,
2013-07-27 13:42:00,63.0,45.0,-100.00,North,7,13.0,23.0,51,0.00,,,0.00,809.000000,,2013-07-27 18:42:00,
2013-07-27 13:53:00,63.0,45.0,-100.00,North,7,13.0,23.0,51,0.00,,,0.00,809.000000,,2013-07-27 18:53:00,
2013-07-27 14:22:00,64.0,44.0,-100.00,North,1,11.0,21.0,49,0.00,,,0.00,734.000000,,2013-07-27 19:22:00,
2013-07-27 14:32:00,64.0,44.0,-100.00,North,1,11.0,21.0,49,0.00,,,0.00,734.000000,,2013-07-27 19:32:00,
2013-07-27 14:43:00,64.0,44.0,-100.00,North,1,11.0,21.0,49,0.00,,,0.00,734.000000,,2013-07-27 19:43:00,
2013-07-27 14:53:00,64.0,44.0,-100.00,North,1,11.0,21.0,49,0.00,,,0.00,734.000000,,2013-07-27 19:53:00,
2013-07-27 15:22:00,65.0,45.0,-100.00,North,3,13.0,22.0,49,0.00,,,0.00,788.000000,,2013-07-27 20:22:00,
2013-07-27 15:32:00,65.0,45.0,-100.00,North,3,13.0,22.0,49,0.00,,,0.00,788.000000,,2013-07-27 20:32:00,
2013-07-27 15:43:00,65.0,45.0,-100.00,North,3,13.0,22.0,49,0.00,,,0.00,788.000000,,2013-07-27 20:43:00,
2013-07-27 15:52:00,65.0,45.0,-100.00,North,3,13.0,22.0,49,0.00,,,0.00,788.000000,,2013-07-27 20:52:00,
2013-07-27 16:22:00,66.0,44.0,-100.00,North,351,14.0,23.0,45,0.00,,,0.00,1000.000000,,2013-07-27 21:22:00,
2013-07-27 16:33:00,66.0,44.0,-100.00,North,351,14.0,23.0,45,0.00,,,0.00,1000.000000,,2013-07-27 21:33:00,
2013-07-27 16:43:00,66.0,44.0,-100.00,North,351,14.0,23.0,45,0.00,,,0.00,1000.000000,,2013-07-27 21:43:00,
2013-07-27 16:52:00,66.0,44.0,-100.00,North,351,14.0,23.0,45,0.00,,,0.00,1000.000000,,2013-07-27 21:52:00,
2013-07-27 17:22:00,67.0,46.0,-100.00,North,354,15.0,21.0,47,0.00,,,0.00,729.000000,,2013-07-27 22:22:00,
2013-07-27 17:32:00,67.0,46.0,-100.00,North,354,15.0,21.0,47,0.00,,,0.00,729.000000,,2013-07-27 22:32:00,
2013-07-27 17:43:00,67.0,46.0,-100.00,North,354,15.0,21.0,47,0.00,,,0.00,729.000000,,2013-07-27 22:43:00,
2013-07-27 17:53:00,67.0,46.0,-100.00,North,354,15.0,21.0,47,0.00,,,0.00,729.000000,,2013-07-27 22:53:00,
2013-07-27 18:22:00,65.0,43.0,-100.00,NNE,14,11.0,21.0,45,0.00,,,0.00,595.000000,,2013-07-27 23:22:00,
2013-07-27 18:32:00,65.0,43.0,-100.00,NNE,14,11.0,21.0,45,0.00,,,0.00,595.000000,,2013-07-27 23:32:00,
2013-07-27 18:44:00,65.0,43.0,-100.00,NNE,14,11.0,21.0,45,0.00,,,0.00,595.000000,,2013-07-27 23:44:00,
2013-07-27 18:52:00,65.0,43.0,-100.00,NNE,14,11.0,21.0,45,0.00,,,0.00,595.000000,,2013-07-27 23:52:00,
2013-07-27 19:22:00,64.0,44.0,-100.00,NNE,23,12.0,20.0,48,0.00,,,0.00,375.000000,,2013-07-28 00:22:00,
2013-07-27 19:32:00,64.0,44.0,-100.00,NNE,23,12.0,20.0,48,0.00,,,0.00,375.000000,,2013-07-28 00:32:00,
2013-07-27 19:44:00,64.0,44.0,-100.00,NNE,23,12.0,20.0,48,0.00,,,0.00,375.000000,,2013-07-28 00:44:00,
2013-07-27 19:53:00,64.0,44.0,-100.00,NNE,23,12.0,20.0,48,0.00,,,0.00,375.000000,,2013-07-28 00:53:00,
2013-07-27 20:22:00,62.0,43.0,-100.00,NNE,23,10.0,16.0,50,0.00,,,0.00,218.000000,,2013-07-28 01:22:00,
2013-07-27 20:32:00,62.0,43.0,-100.00,NNE,23,10.0,16.0,50,0.00,,,0.00,218.000000,,2013-07-28 01:32:00,
2013-07-27 20:43:00,62.0,43.0,-100.00,NNE,23,10.0,16.0,50,0.00,,,0.00,218.000000,,2013-07-28 01:43:00,
2013-07-27 20:53:00,62.0,43.0,-100.00,NNE,23,10.0,16.0,50,0.00,,,0.00,218.000000,,2013-07-28 01:53:00,
2013-07-27 21:22:00,57.0,44.0,-100.00,NNE,13,6.0,12.0,62,0.00,,,0.00,47.000000,,2013-07-28 02:22:00,
2013-07-27 21:32:00,57.0,44.0,-100.00,NNE,13,6.0,12.0,62,0.00,,,0.00,47.000000,,2013-07-28 02:32:00,
2013-07-27 21:42:00,57.0,44.0,-100.00,NNE,13,6.0,12.0,62,0.00,,,0.00,47.000000,,2013-07-28 02:42:00,
2013-07-27 21:53:00,57.0,44.0,-100.00,NNE,13,6.0,12.0,62,0.00,,,0.00,47.000000,,2013-07-28 02:53:00,
2013-07-27 22:22:00,56.0,47.0,-100.00,North,11,7.0,10.0,71,0.00,,,0.00,0.000000,,2013-07-28 03:22:00,
2013-07-27 22:32:00,56.0,47.0,-100.00,North,11,7.0,10.0,71,0.00,,,0.00,0.000000,,2013-07-28 03:32:00,
2013-07-27 22:42:00,56.0,47.0,-100.00,North,11,7.0,10.0,71,0.00,,,0.00,0.000000,,2013-07-28 03:42:00,
2013-07-27 22:53:00,56.0,47.0,-100.00,North,11,7.0,10.0,71,0.00,,,0.00,0.000000,,2013-07-28 03:53:00,
2013-07-27 23:22:00,55.0,44.0,-100.00,North,3,6.0,10.0,66,0.00,,,0.00,0.000000,,2013-07-28 04:22:00,
2013-07-27 23:32:00,55.0,44.0,-100.00,North,3,6.0,10.0,66,0.00,,,0.00,0.000000,,2013-07-28 04:32:00,
2013-07-27 23:43:00,55.0,44.0,-100.00,North,3,6.0,10.0,66,0.00,,,0.00,0.000000,,2013-07-28 04:43:00,
2013-07-27 23:53:00,55.0,44.0,-100.00,North,3,6.0,10.0,66,0.00,,,0.00,0.000000,,2013-07-28 04:53:00,